Location: Bambrugge
(50.9212°N, 3.9299°E)
Time: 21:08:05
(UTC+00:00)

SL-16 R/B - Pass Details

Date: 09 August 2024
Orbit: 842 x 845 km, 71.0° (Epoch: 10 September)

Event Time Altitude Azimuth Distance (km) Brightness Sun altitude
Exits shadow 01:11:11 32° 244° (WSW) 1,412 3.0 -21.0°
Maximum altitude 01:13:36 55° 306° (NW) 1,014 2.6 -20.8°
Drops below altitude 10° 01:19:11 10° 24° (NNE) 2,477 5.8 -20.5°
Sets 01:21:42 0° 29° (NNE) 3,416 6.9 -20.4°
